Temperature
19 19 19 19 19 19 19 19 18 18 19 19 19 19 19 19 19 19 18 18 18 18 18 18 17 17 17 17 17 17 17 17 17 16 16 16 16 16 16 16 16 16 16
19 19 19 19 19 19 19 19 19 18 19 19 19 19 19 19 18 18 18 18 18 18 18 18 18 17 17 17 17 17 17 17 17 16 16 16 16 16 16 16 16 16 16
19 19 19 19 19 19 19 19 19 19 19 18 18 18 19 18 18 18 18 18 18 18 18 17 17 17 17 17 17 17 17 17 17 16 16 16 16 16 16 16 16 16 16
19 19 19 19 19 18 18 18 19 18 18 18 18 18 18 18 18 18 18 18 18 18 18 17 17 17 17 17 17 17 17 17 17 16 16 16 16 16 16 16 16 16 16
19 19 19 19 18 18 18 18 18 18 18 18 18 18 18 18 18 18 18 17 17 17 17 17 17 17 17 17 17 17 17 17 17 16 16 16 16 16 16 16 16 16 16
19 19 18 18 18 18 18 18 18 18 18 18 18 18 18 18 18 18 18 17 17 17 17 17 17 17 17 17 17 17 17 16 16 16 16 16 16 16 16 16 16 16 16
19 19 18 18 18 18 18 18 18 18 18 18 18 18 18 18 18 18 18 17 17 17 17 17 17 17 17 17 17 17 16 16 16 16 16 16 16 16 16 16 16 16 16
19 19 18 18 18 18 18 18 18 18 18 18 18 18 18 18 17 17 17 17 17 17 17 16 16 16 16 16 16 16 16 16 16 16 16 16 16 16 16 16 16 16 15
19 18 19 18 18 18 18 18 18 18 18 18 18 18 18 18 17 17 17 17 17 17 16 16 16 16 16 16 16 16 16 16 16 16 16 16 16 16 15 15 15 15 15
18 18 18 18 18 18 18 18 18 18 18 18 18 18 18 18 17 17 17 17 16 16 16 16 16 16 16 16 16 16 16 16 16 15 15 15 15 15 15 15 15 15 15
18 18 18 18 18 18 18 18 18 18 18 18 18 18 18 18 18 17 16 16 16 16 16 16 16 16 16 15 15 15 15 15 15 15 15 15 15 15 15 15 15 14 14
18 18 18 18 18 18 18 18 18 18 18 18 18 18 18 17 17 17 17 16 16 16 16 16 15 15 15 15 15 15 15 15 15 15 15 14 14 14 14 14 14 14 14
18 18 18 18 18 18 18 18 18 18 18 18 17 17 17 17 17 17 17 16 16 15 15 15 15 15 15 15 15 15 15 15 15 14 14 14 14 14 14 14 14 14 14
18 18 18 18 18 18 18 18 18 18 17 17 17 17 17 17 17 17 17 16 16 15 15 15 15 15 14 14 14 14 14 14 14 14 14 14 13 13 13 13 13 13 13
18 18 18 18 18 18 17 17 17 17 17 17 17 17 17 17 17 17 17 16 16 15 14 14 14 14 14 14 14 14 14 14 13 13 13 13 13 13 13 13 13 13 12
18 18 18 18 18 17 17 17 17 17 17 17 17 17 17 17 16 16 16 16 16 16 14 14 14 13 13 13 13 13 13 13 13 13 13 13 12 12 12 12 12 12 12
18 18 18 18 17 17 17 17 17 17 17 17 16 16 16 16 16 16 16 15 15 15 15 14 13 13 13 13 13 13 13 13 12 12 12 12 12 12 12 12 12 12 12
18 18 18 17 17 17 17 17 17 17 16 16 16 16 16 16 16 16 15 15 15 15 15 14 13 13 13 13 13 12 12 12 12 12 12 12 12 11 11 11 11 11 11
18 18 17 17 17 17 17 17 17 16 16 16 16 16 16 15 15 15 15 15 15 15 14 14 13 13 12 12 12 12 12 12 12 11 11 11 11 11 11 11 11 11 11
18 18 17 17 17 17 17 17 16 16 16 15 15 15 15 15 15 15 15 14 14 14 14 13 13 12 12 12 12 12 12 11 11 11 11 11 11 11 11 11 11 10 10
18 18 17 17 17 17 17 17 16 16 16 15 15 15 15 15 15 14 14 14 14 14 13 13 12 12 12 12 12 12 11 11 11 11 11 11 11 11 10 10 10 10 10
18 17 17 17 17 17 16 16 16 16 15 15 15 14 14 14 14 14 14 14 14 14 13 13 12 12 12 12 12 11 11 11 11 11 11 10 10 10 10 10 10 10 9
17 17 17 17 17 16 16 16 16 15 15 15 14 14 14 14 14 13 13 13 13 13 13 13 12 12 12 12 12 11 11 11 11 11 10 10 10 10 10 10 9 9 9
17 17 17 17 16 16 16 16 15 15 15 14 14 14 14 14 13 13 13 13 13 13 12 12 12 12 12 11 11 11 11 11 11 10 10 10 10 10 10 10 9 9 9
17 17 16 16 16 16 16 15 15 15 15 14 14 14 14 13 13 13 13 13 12 12 12 12 12 12 11 11 11 11 11 11 10 10 10 10 9 9 9 9 9 9 9
17 16 16 16 16 16 15 15 15 14 14 14 14 14 13 13 13 13 12 12 12 12 12 12 11 11 11 11 11 11 10 10 10 10 10 10 9 9 9 9 9 9 9
Wind_Speed
3 3 1 1 1 3 3 2 2 2 2 2 2 2 2 4 7 8 10 13 13 12 12 11 10 10 10 10 10 9 9 10 9 9 8 9 10 10 10 10 10 10 10
3 2 1 1 1 1 2 3 2 1 1 2 2 2 2 3 6 9 10 11 12 12 11 10 10 9 9 9 8 8 8 8 9 9 9 10 10 10 10 10 10 10 10
3 1 1 0 1 2 2 2 2 1 1 1 1 1 1 2 4 7 10 10 10 11 11 10 9 9 9 9 9 8 8 8 8 8 8 9 10 10 11 11 10 10 11
2 1 1 1 2 1 1 1 1 1 1 2 1 1 1 1 2 5 7 9 10 9 10 10 9 8 8 8 8 8 8 8 8 8 8 8 9 10 11 11 11 11 12
1 1 1 2 1 1 1 1 2 0 1 1 1 1 1 1 1 2 3 6 8 9 9 10 9 8 7 7 6 6 6 6 7 7 8 8 8 9 10 11 11 11 12
1 1 1 1 1 2 1 2 2 1 1 0 1 1 1 1 2 2 2 3 5 7 8 8 8 6 5 5 5 5 5 6 6 6 6 6 6 6 7 8 9 10 11
1 1 1 1 0 1 1 1 0 0 0 0 1 1 1 2 2 1 1 1 2 4 5 6 7 6 5 4 3 3 4 5 5 5 5 5 5 5 6 7 8 9 10
1 0 1 0 1 0 0 1 0 1 1 0 1 0 1 1 1 1 1 2 2 3 4 5 5 6 6 5 3 3 3 3 4 4 4 4 4 5 5 5 6 7 8
1 1 2 1 0 1 1 1 1 0 1 2 1 1 1 0 0 1 1 2 2 2 2 4 4 5 6 6 5 5 5 4 4 3 3 3 2 2 2 2 4 5 5
1 1 1 1 0 1 0 1 1 2 2 2 1 0 1 1 1 1 1 2 2 3 2 2 3 4 5 6 7 7 6 5 4 3 3 2 2 2 2 1 0 2 4
0 0 1 1 1 0 0 1 1 1 1 2 2 1 0 1 1 2 1 0 1 2 1 2 3 4 5 6 7 9 9 8 7 6 5 5 5 5 4 3 2 2 1
1 1 1 2 1 0 0 0 1 1 1 1 2 1 0 0 1 1 1 1 0 1 2 2 2 4 6 8 8 9 11 10 9 9 8 8 7 7 6 5 4 4 5
1 1 1 1 1 0 0 0 0 0 1 1 1 1 1 1 0 1 1 1 0 1 2 2 4 5 6 8 9 10 11 11 10 10 9 9 8 8 8 8 7 7 7
1 2 2 1 1 0 0 0 0 0 0 0 1 1 1 1 1 1 1 2 1 1 2 2 3 5 6 8 10 11 11 12 12 11 11 10 10 10 10 10 9 9 9
1 2 2 1 1 1 0 0 1 1 1 0 1 1 1 1 1 0 1 2 2 2 2 2 2 3 6 9 10 11 11 13 12 11 11 11 11 11 11 11 11 11 11
2 2 1 1 1 1 1 1 1 1 1 2 1 2 2 2 1 1 1 1 1 2 2 2 2 3 6 8 10 10 11 13 12 11 11 11 12 12 12 12 12 12 12
2 1 1 1 1 1 1 1 1 1 2 2 3 3 3 2 2 2 2 2 3 3 5 3 3 4 5 6 7 8 10 10 10 12 12 12 12 12 12 12 12 12 12
2 2 2 1 2 2 2 2 2 3 4 4 4 4 3 3 4 3 3 3 3 4 6 6 3 3 3 4 4 4 7 8 9 11 12 12 11 11 11 11 11 11 11
3 3 2 2 2 2 3 2 3 4 4 4 4 4 5 5 4 4 4 4 3 4 5 5 4 3 2 2 3 4 5 6 7 9 10 10 10 10 10 10 10 10 10
4 3 3 3 3 3 3 3 4 4 5 5 5 5 6 6 5 4 4 4 4 4 4 5 5 3 3 2 2 2 2 2 3 6 7 8 9 9 9 8 8 8 8
4 4 4 3 3 4 4 4 4 5 5 5 6 6 7 9 9 6 5 4 4 3 4 4 4 3 3 2 1 1 2 2 2 3 3 4 6 6 6 6 6 7 7
4 4 5 4 4 4 6 7 5 4 4 4 5 4 6 8 9 9 10 8 5 4 4 3 3 3 2 2 1 1 2 2 1 2 2 2 4 4 6 6 6 6 5
5 5 5 5 5 6 8 7 7 4 4 4 4 4 4 6 6 5 6 6 8 8 5 3 3 2 2 1 1 1 1 1 1 2 1 1 2 3 5 6 8 8 7
5 5 5 5 5 6 7 6 5 4 5 5 5 5 5 5 6 5 5 6 6 6 5 4 3 3 2 1 0 1 1 1 1 2 2 1 1 2 3 6 9 9 8
5 5 6 5 5 5 5 5 3 3 5 6 6 7 6 7 7 7 5 5 5 4 7 8 7 6 6 4 2 1 0 1 1 1 1 0 0 1 1 3 7 10 9
6 6 6 5 6 5 5 5 3 2 5 6 6 7 10 8 7 6 4 4 4 3 3 3 3 3 4 4 3 2 1 1 1 0 0 0 0 0 1 2 4 7 7
Wind_Direction
90 89 79 51 87 116 137 131 89 65 43 26 15 44 59 94 114 122 138 152 158 167 172 173 176 180 184 188 192 195 200 202 204 206 210 205 207 211 211 211 212 211 211
80 83 92 53 62 88 80 88 102 92 74 55 22 51 61 99 124 130 141 154 162 165 167 170 175 178 186 189 189 193 204 210 214 213 213 212 212 213 213 212 214 214 212
84 92 108 121 63 56 91 102 90 86 120 90 56 38 66 80 112 131 143 154 162 169 173 174 177 183 187 192 194 201 208 214 215 216 214 215 217 220 221 218 218 219 219
70 65 102 77 59 62 81 132 120 79 55 74 67 17 57 86 117 136 147 153 160 167 178 181 176 182 187 191 196 206 213 216 218 217 219 221 224 226 225 222 222 225 225
62 30 63 65 17 53 4 344 88 81 93 76 140 156 155 133 128 123 130 144 152 154 164 172 176 178 184 192 199 209 213 211 214 220 224 227 231 231 229 229 229 231 231
68 34 92 82 39 45 29 30 33 358 12 336 348 50 58 98 104 92 107 112 131 146 155 159 165 169 172 186 202 211 210 208 208 211 214 220 227 227 226 228 232 235 233
70 3 27 92 116 101 71 357 344 314 300 193 63 53 57 67 89 109 106 93 103 116 128 131 139 151 158 179 193 201 208 208 207 210 215 216 223 223 223 227 231 235 236
115 230 119 182 113 124 165 278 297 335 292 221 172 114 80 26 10 98 138 140 110 92 96 112 116 123 121 128 136 158 159 165 166 181 192 200 214 222 221 225 232 237 235
145 17 64 59 89 209 168 250 260 248 281 282 224 170 163 173 98 54 77 103 107 107 102 95 101 118 125 117 122 136 139 134 149 156 160 153 158 176 197 222 236 240 239
73 103 97 94 247 282 86 257 158 274 270 289 299 218 202 172 175 136 31 47 69 79 82 86 84 102 127 123 115 117 133 137 135 135 125 131 149 169 178 173 193 224 223
16 45 113 121 165 239 326 349 15 306 317 313 319 320 338 222 202 159 179 213 56 61 75 77 80 88 100 107 105 103 113 117 116 112 103 98 93 96 102 99 87 72 86
186 175 121 105 124 186 354 17 294 315 345 328 326 329 32 176 184 151 176 181 131 57 62 52 77 78 91 93 98 100 110 111 112 106 97 92 87 85 86 81 76 72 70
154 134 109 101 96 139 134 252 246 317 312 334 320 315 332 301 216 147 147 159 123 72 64 51 66 80 89 94 92 94 100 104 103 100 94 89 85 81 78 75 75 74 70
101 99 110 120 127 63 25 195 153 268 284 277 331 345 338 344 3 110 152 151 137 109 83 76 59 68 85 96 96 95 94 99 96 94 91 88 83 79 77 73 71 71 67
102 92 105 112 90 86 66 78 76 325 333 357 8 25 22 10 49 28 143 160 163 153 111 91 82 76 92 97 102 97 94 100 100 98 96 92 88 83 80 77 75 72 69
61 85 93 78 67 48 26 25 66 17 62 51 52 50 49 35 36 35 54 89 110 130 117 90 99 103 94 97 98 99 95 98 101 102 97 93 90 87 83 80 78 75 72
103 101 97 82 77 50 36 39 54 51 71 63 58 64 60 54 51 49 59 72 79 102 114 102 92 91 95 99 102 103 102 103 102 108 105 100 95 92 89 86 83 80 77
123 118 101 85 71 79 82 76 50 60 62 58 52 53 51 63 59 59 63 68 84 96 121 125 115 104 101 108 123 129 115 106 105 113 114 111 105 100 96 91 88 84 80
128 121 112 99 83 74 80 81 71 67 64 59 54 58 57 58 54 63 68 75 89 97 108 124 126 121 111 111 107 100 102 113 115 117 115 116 114 108 103 99 95 91 88
130 122 108 96 91 76 63 64 83 75 72 67 61 61 62 62 57 57 71 74 89 100 111 120 125 126 113 113 114 117 113 111 118 123 118 122 124 115 108 103 98 97 96
135 121 114 104 98 91 66 59 70 79 76 78 74 73 73 75 71 67 73 77 88 98 111 116 124 117 110 116 125 147 127 123 111 123 129 142 140 135 130 119 111 111 109
121 114 107 99 87 79 57 58 66 75 78 84 83 87 94 80 78 78 75 68 75 101 103 107 109 115 108 108 106 136 145 144 144 154 148 159 152 144 150 146 145 143 141
129 122 120 109 99 77 68 60 57 80 81 80 80 73 71 73 72 82 88 82 73 76 88 113 114 104 106 122 151 155 174 182 174 168 151 155 149 147 151 158 165 170 175
136 133 129 124 117 94 75 64 59 90 84 75 69 71 75 73 63 58 75 77 72 63 65 80 99 106 104 90 202 179 178 131 112 109 104 156 153 146 140 162 181 183 185
143 142 137 133 122 106 81 71 68 116 103 87 75 65 62 72 60 56 74 77 79 77 79 86 93 104 106 92 79 79 76 110 112 103 85 286 115 88 149 166 185 192 199
150 146 134 128 120 111 87 69 40 125 120 112 100 88 69 66 59 56 75 81 80 67 63 84 95 103 107 94 76 59 41 50 71 73 46 337 208 198 215 176 176 196 210
Height
1543 1543 1544 1545 1546 1547 1547 1547 1548 1549 1549 1550 1551 1551 1551 1551 1552 1552 1553 1553 1554 1554 1555 1555 1556 1557 1558 1559 1560 1561 1562 1563 1564 1565 1566 1567 1569 1570 1571 1573 1574 1575 1576
1544 1544 1545 1546 1546 1547 1548 1548 1548 1549 1550 1550 1550 1551 1551 1551 1552 1552 1552 1553 1553 1554 1554 1555 1555 1556 1557 1558 1559 1559 1561 1562 1563 1564 1565 1566 1567 1568 1569 1570 1572 1573 1574
1544 1545 1545 1546 1547 1548 1548 1549 1549 1549 1549 1550 1550 1550 1551 1551 1552 1552 1552 1552 1553 1553 1553 1554 1555 1555 1556 1557 1557 1558 1559 1560 1561 1562 1563 1564 1565 1566 1567 1568 1569 1570 1572
1545 1545 1545 1546 1547 1547 1548 1549 1549 1549 1549 1549 1550 1550 1550 1550 1551 1551 1552 1552 1552 1552 1552 1553 1554 1554 1555 1555 1556 1557 1557 1558 1559 1560 1561 1561 1562 1563 1564 1565 1566 1568 1569
1545 1545 1545 1546 1546 1547 1548 1548 1549 1549 1549 1549 1549 1549 1550 1550 1550 1551 1551 1551 1551 1551 1552 1552 1552 1553 1554 1554 1555 1555 1555 1556 1557 1557 1558 1559 1560 1560 1561 1562 1563 1564 1565
1545 1545 1545 1545 1546 1547 1547 1548 1548 1548 1549 1549 1549 1549 1549 1549 1550 1550 1550 1551 1551 1551 1551 1551 1551 1552 1552 1553 1553 1553 1554 1554 1555 1555 1556 1556 1557 1558 1558 1559 1560 1561 1562
1544 1544 1544 1545 1545 1546 1546 1547 1547 1548 1548 1549 1549 1549 1549 1549 1549 1550 1550 1550 1551 1551 1551 1551 1550 1550 1551 1551 1552 1552 1552 1552 1552 1553 1554 1554 1554 1555 1556 1556 1557 1557 1558
1544 1545 1544 1544 1545 1545 1545 1546 1547 1547 1548 1548 1549 1548 1549 1550 1549 1549 1550 1550 1550 1550 1550 1550 1550 1550 1550 1550 1550 1550 1550 1550 1550 1551 1551 1551 1552 1552 1552 1553 1553 1554 1554
1544 1544 1544 1544 1544 1544 1545 1545 1546 1546 1547 1547 1548 1548 1548 1548 1548 1549 1549 1549 1549 1549 1549 1549 1549 1549 1549 1549 1549 1549 1549 1549 1548 1549 1549 1549 1549 1549 1550 1550 1550 1550 1551
1543 1543 1543 1544 1543 1544 1544 1544 1545 1545 1546 1546 1547 1547 1548 1547 1548 1548 1549 1549 1548 1548 1548 1548 1548 1547 1548 1547 1547 1547 1548 1548 1547 1547 1547 1547 1547 1547 1547 1548 1548 1548 1548
1543 1543 1543 1543 1543 1543 1543 1544 1544 1544 1544 1545 1545 1545 1546 1546 1546 1547 1547 1548 1547 1547 1547 1546 1546 1546 1546 1546 1546 1546 1546 1547 1546 1546 1546 1546 1546 1546 1546 1546 1546 1546 1546
1542 1542 1542 1542 1542 1542 1543 1543 1543 1543 1543 1543 1544 1544 1544 1544 1545 1545 1545 1546 1546 1546 1545 1545 1545 1545 1545 1545 1545 1545 1545 1546 1545 1545 1545 1545 1545 1545 1544 1544 1544 1544 1544
1541 1542 1542 1541 1542 1542 1542 1542 1542 1542 1542 1542 1542 1543 1543 1543 1543 1544 1544 1544 1544 1544 1544 1544 1544 1544 1544 1544 1544 1545 1545 1545 1545 1545 1545 1544 1544 1544 1544 1543 1543 1543 1543
1541 1541 1541 1541 1541 1541 1541 1541 1541 1541 1541 1541 1541 1541 1541 1542 1542 1542 1542 1542 1542 1543 1543 1544 1544 1544 1543 1543 1543 1544 1544 1544 1544 1544 1544 1544 1543 1543 1543 1543 1542 1542 1542
1540 1540 1540 1540 1540 1540 1540 1540 1540 1540 1540 1540 1539 1539 1539 1540 1540 1540 1540 1540 1541 1540 1542 1543 1543 1543 1543 1543 1543 1543 1544 1544 1544 1544 1543 1543 1543 1542 1542 1542 1542 1542 1541
1539 1539 1539 1539 1540 1539 1540 1540 1539 1540 1539 1539 1539 1539 1538 1538 1539 1539 1539 1539 1539 1539 1539 1541 1542 1543 1543 1543 1543 1544 1544 1544 1544 1543 1543 1543 1542 1542 1542 1541 1541 1541 1541
1537 1538 1538 1538 1539 1538 1538 1539 1539 1539 1539 1539 1538 1538 1538 1538 1538 1538 1538 1538 1538 1538 1538 1541 1542 1543 1543 1543 1544 1544 1544 1543 1543 1543 1543 1543 1542 1542 1542 1541 1541 1541 1541
1536 1537 1537 1538 1538 1538 1538 1538 1538 1539 1539 1539 1538 1538 1538 1537 1537 1537 1537 1538 1538 1538 1539 1540 1541 1543 1543 1544 1544 1544 1544 1543 1543 1543 1543 1543 1543 1543 1542 1542 1541 1541 1541
1536 1536 1537 1537 1537 1538 1538 1538 1538 1539 1539 1539 1539 1538 1538 1538 1538 1537 1537 1538 1538 1539 1539 1540 1541 1542 1543 1544 1544 1544 1544 1544 1544 1544 1544 1544 1543 1543 1542 1542 1542 1541 1541
1535 1536 1536 1537 1537 1538 1538 1538 1539 1539 1540 1539 1539 1539 1538 1538 1538 1538 1538 1538 1538 1539 1539 1540 1541 1542 1543 1544 1544 1544 1544 1545 1544 1545 1544 1544 1544 1544 1543 1543 1542 1542 1541
1535 1535 1536 1537 1537 1538 1539 1539 1539 1540 1540 1540 1540 1539 1539 1539 1539 1539 1538 1538 1538 1539 1540 1540 1541 1542 1543 1543 1544 1544 1544 1545 1545 1545 1545 1544 1544 1544 1543 1543 1542 1542 1542
1534 1535 1536 1536 1537 1538 1539 1539 1540 1540 1540 1540 1540 1540 1540 1540 1539 1539 1539 1539 1540 1540 1540 1540 1541 1541 1542 1543 1543 1544 1544 1544 1544 1545 1544 1544 1544 1543 1543 1543 1543 1542 1542
1533 1534 1535 1536 1537 1538 1539 1539 1540 1540 1541 1541 1541 1541 1541 1540 1540 1539 1540 1540 1540 1540 1541 1541 1541 1541 1541 1542 1542 1543 1543 1544 1544 1544 1544 1544 1544 1543 1543 1542 1542 1542 1541
1532 1533 1534 1536 1537 1538 1539 1539 1540 1541 1541 1541 1541 1541 1541 1540 1540 1540 1540 1540 1540 1541 1541 1541 1541 1541 1542 1542 1542 1543 1543 1543 1543 1543 1544 1543 1543 1543 1542 1542 1542 1541 1541
1531 1532 1533 1535 1536 1537 1538 1539 1540 1540 1541 1541 1541 1541 1541 1541 1541 1541 1541 1541 1541 1541 1541 1541 1541 1541 1541 1541 1541 1542 1541 1541 1542 1542 1542 1542 1542 1542 1541 1541 1541 1540 1540
1530 1531 1533 1534 1535 1536 1538 1539 1540 1540 1540 1541 1541 1541 1541 1541 1541 1541 1541 1541 1541 1541 1542 1542 1542 1542 1542 1541 1541 1541 1541 1541 1541 1541 1541 1541 1541 1540 1540 1540 1539 1539 1538